Regional Weather Roundup
Issued by NWS

Home | Current Version | Previous Version | Text Only | Print | Product List | Glossary On
Versions: 1 2 3 4 5 6 7 8 9 10 11 12 13 14 15 16 17 18 19 20 21 22 23 24 25 26 27 28 29 30 31 32 33 34 35 36 37 38 39 40 41 42 43 44 45 46 47 48 49 50
000
ASUS45 KPSR 280910
RWRAZ

ARIZONA HOURLY REGIONAL WEATHER ROUNDUP
NATIONAL WEATHER SERVICE PHOENIX AZ
200 AM MST TUE MAR 28 2017

NOTE: FAIR INDICATES FEW OR NO CLOUDS BELOW 12,000 FEET WITH NO
SIGNIFICANT WEATHER AND/OR OBSTRUCTIONS TO VISIBILITY.

AZZ001>003-036-281000-
NORTHWEST ARIZONA

CITY           SKY/WX    TMP DP  RH WIND       PRES   REMARKS
BULLHEAD CITY  CLEAR     63  37  39 VRB6G17   29.92R
KINGMAN        CLEAR     44  27  51 VRB5      29.95S
$$

AZZ004>008-015-016-018-281000-
NORTH CENTRAL ARIZONA

CITY           SKY/WX    TMP DP  RH WIND       PRES   REMARKS
GRAND CANYON   PTCLDY    31  28  89 CALM      29.87F
WILLIAMS       MOCLDY    32  30  93 NW6       29.88F WCI  26
PRESCOTT       CLEAR     40  34  79 W8        29.88F WCI  34
FLAGSTAFF      PTCLDY    33  27  78 VRB5      29.85F WCI  29
PAYSON         PTCLDY    39  34  81 CALM      29.87F
PAGE           CLOUDY    49  31  49 NW6       29.84R
$$

AZZ009>014-017-281000-
NORTHEAST ARIZONA

CITY           SKY/WX    TMP DP  RH WIND       PRES   REMARKS
WINSLOW        PTCLDY    35  34  96 S5        29.84F WCI  31
SAINT JOHNS    MOCLDY    38  36  92 E6        29.87F WCI  33
WINDOW ROCK    CLOUDY    37  32  82 SE9       29.88F WCI  30
SHOW LOW       PTCLDY    34  32  93 CALM      29.88S
$$

AZZ023-281000-
GREATER PHOENIX AREA

CITY           SKY/WX    TMP DP  RH WIND       PRES   REMARKS
PHOENIX        CLOUDY    64  37  36 SW7       29.78F
BUCKEYE        MOCLDY    59  32  36 NW7       29.81S
LUKE AFB       MOCLDY    63  37  38 W3        29.79S
DEER VALLEY    MOCLDY    59  36  42 W5        29.79F
SCOTTSDALE     MOCLDY    61  36  39 SW5       29.80F
MESA-GATEWAY   MOCLDY    63  32  31 SW6       29.80S
$$

AZZ027-028-281000-
SOUTHWEST MARICOPA COUNTY AND PINAL COUNTY

CITY           SKY/WX    TMP DP  RH WIND       PRES   REMARKS
CASA GRANDE    NOT AVBL
GILA BEND      FAIR      64  34  32 CALM      29.81S
$$

AZZ503-504-507>509-281000-
SOUTHEAST ARIZONA

CITY           SKY/WX    TMP DP  RH WIND       PRES   REMARKS
TUCSON         PTCLDY    59  31  34 W6        29.84F
DAVIS-MONTHAN  MOCLDY    58  32  36 CALM      29.83F
NOGALES        CLEAR     47  30  51 E3        29.87F
SIERRA VISTA   CLEAR     51  28  41 W12       29.89F
DOUGLAS        PTCLDY    57  27  31 W15       29.86S
SAFFORD        CLEAR     57  30  35 NW13      29.78F
$$

AZZ020-021-025-026-031-281000-
SOUTHWEST ARIZONA

CITY           SKY/WX    TMP DP  RH WIND       PRES   REMARKS
YUMA           PTCLDY    61  44  53 W6        29.87F
$$

CAZ031-033-041-043-047-048-061-281000-
SOUTHERN CALIFORNIA

CITY           SKY/WX    TMP DP  RH WIND       PRES   REMARKS
DOWNTOWN L.A.  CLEAR     63  36  36 VRB7      29.99S
L.A. AIRPORT   CLEAR     62  38  40 N17G28    29.98F
SAN DIEGO      PTCLDY    58  51  78 CALM      30.03S
BURBANK        CLEAR     57  37  47 W13       30.02S
ONTARIO        CLEAR     49  40  71 W8        30.00S
RIVERSIDE      CLEAR     62  32  32 VRB5G22   30.00S
PALM SPRINGS   CLEAR     66  29  24 N9G29     29.97S
EL CENTRO NAS  CLEAR     64  33  31 W13       29.93S
IMPERIAL       CLEAR     62  37  39 NW6       29.91R
BLYTHE         CLEAR     64  30  27 CALM      29.90R
NEEDLES        CLEAR     65  31  28 N13       29.92R
$$

NVZ020-UTZ003-281000-
SOUTHERN NEVADA-UTAH

CITY           SKY/WX    TMP DP  RH WIND       PRES   REMARKS
LAS VEGAS      PTCLDY    57  22  25 NW17G25   30.00R
SALT LAKE CITY CLOUDY    40  33  76 N10       30.02R WCI  33
$$

NMZ009-TXZ055-281000-
NEW MEXICO-WEST TEXAS

CITY           SKY/WX    TMP DP  RH WIND       PRES   REMARKS
ALBUQUERQUE    CLOUDY    50  37  61 CALM      29.82F
EL PASO        PTCLDY    63  27  25 S5        29.77F
$$


........................KEY........................
SKY/WX - SKY CONDITION/WEATHER
TMP    - TEMPERATURE IN FAHRENHEIT
DP     - DEW POINT IN FAHRENHEIT
RH     - RELATIVE HUMIDITY IN PERCENT
WIND   - DIRECTION AND SPEED IN MILES PER HOUR (MPH)
VRB    - VARIABLE WIND DIRECTION
PRES   - MEAN SEA LEVEL PRESSURE IN INCHES OF MERCURY
         F - FALLING PRESSURE   R - RISING PRESSURE
         S - STEADY PRESSURE
VSB    - VISIBILITY IN MILES
HX     - HEAT INDEX IN FAHRENHEIT
WCI    - WIND CHILL INDEX IN FAHRENHEIT
TC     - TEMPERATURE IN CELSIUS WHICH IS ALSO KNOWN AS
         TEMPERATURE IN CENTIGRADE
AFB    - AIR FORCE BASE
         LUKE AFB IS LUKE AIR FORCE BASE
         DAVIS-MONTHAN IS DAVIS-MONTHAN AIR FORCE BASE
NAS    - NAVAL AIR STATION
         EL CENTRO NAS IS EL CENTRO NAVAL AIR STATION
N/A    - NOT AVAILABLE




USA.gov is the U.S. government's official web portal to all federal, state and local government web resources and services.